COSMOS 1275 DEB

Satellite information

Favourite Embed

Satellite Type and Status

DEBRISIN ORBIT

Key statistics

Satellite COSMOS 1275 DEB at a glance.

Uptime

16105

Days in orbit

Revolutions

≈ 13.7

Per day

Orbit

LEO

Low Earth Orbit

Inclination

83.0

Latest

Satellite identification and parameters

Extended collection of information and parameters for COSMOS 1275 DEB.

Object identification

Identified? True

Debris? True

Object name: COSMOS 1275 DEB

International designator: 1981-053TD

Object number (NORAD): 42189

Object ID (CCSDS): 42189

Country: COMMONWEALTH OF INDEPENDENT STATES (CIS)

Current information (Y/N): Y

RCS size: SMALL

Orbital parameters

Period: 105.0 minutes

Inclination: 83.0202 deg

SMA: 7372.584 km

Apoapsis: 1082.215 km

Periapsis: 906.684 km

RAAN: 183.7059 deg

Eccentricy: 0.0119043

Argument of periapsis: 283.0588 deg

Mean anomaly: 75.73 deg

Mean motion: 13.71428416 rev/day

Mean motion (dot): 0.00000745 rev/day2

B* drag term: 0.0007734 1/REarth

Two-line elements (TLE)

Creation date: July 8, 2025, 2:27 a.m.

Reference frame: TEME

Reference center: EARTH

Epoch: July 7, 2025, 5:29 p.m. UTC

TLE line 0: 0 COSMOS 1275 DEB

TLE line 1: 1 42189U 81053TD 25188.72902644 .00000745 00000-0 77340-3 0 9999

TLE line 2: 2 42189 83.0202 183.7059 0119043 283.0588 75.7300 13.71428416561759

Live tracking on map

Real-time ground track for satellite COSMOS 1275 DEB.

In-orbit conjunctions

A list of the most updated potential collisions computed for object COSMOS 1275 DEB.

Target Orbit TCA Probability of collision Miss distance Type
KOMPASS SSO 2025-01-28 11:23:50 0.0002408636 193.0 (m) PAYLOAD

Associated space launch

Navigation satellite providing location information for the Tsiklon-B navigation system

COSMOS 1275 DEB was lifted into orbit during the mission ‘Kosmos-3M | Parus 27’, on board a Kosmos-3M space rocket.

The launch took place on June 4, 1981, 3:41 p.m. from 132/2.

For more information about the launch, click the button.

Launch to space Kosmos-3M | Parus 27
Kosmos-3M | Parus 27

Agency: N/A

Status: Launch Successful

Launch date: June 4, 1981, 3:41 p.m. UTC

Rocket: Kosmos-3M

Launch pad: 132/2

Location: Plesetsk Cosmodrome, Russian Federation

...

Latest news about this satellite

There are no fresh news available about this satellite. Check back as we update our databases every day.


Newsletter sign-up

Weekly statistics, charts and insights to help you stay on top of the space industry.